Netzbetreibername:;Stadtwerke Gotha NETZ GmbH;;
Netz- oder Umspannebene:;alle;;
Lastgangtyp:;Summenlast der Netzverluste;;
gesetzliche Grundlage:;� 17 Abs. 2 Nr. 3 StromNZV;;
Einheit:;kW;;
Betrachtungszeitraum:;01.01.2018;bis;31.12.2018
;;;
;;;
;;;
;;;
Datum;Wert;;
01.01.2018 00:15;710;;
01.01.2018 00:30;701;;
01.01.2018 00:45;701;;
01.01.2018 01:00;694;;
01.01.2018 01:15;682;;
01.01.2018 01:30;668;;
01.01.2018 01:45;658;;
01.01.2018 02:00;649;;
01.01.2018 02:15;638;;
01.01.2018 02:30;622;;
01.01.2018 02:45;603;;
01.01.2018 03:00;592;;
01.01.2018 03:15;589;;
01.01.2018 03:30;593;;
01.01.2018 03:45;586;;
01.01.2018 04:00;576;;
01.01.2018 04:15;572;;
01.01.2018 04:30;568;;
01.01.2018 04:45;566;;
01.01.2018 05:00;566;;
01.01.2018 05:15;578;;
01.01.2018 05:30;584;;
01.01.2018 05:45;586;;
01.01.2018 06:00;591;;
01.01.2018 06:15;591;;
01.01.2018 06:30;588;;
01.01.2018 06:45;595;;
01.01.2018 07:00;601;;
01.01.2018 07:15;609;;
01.01.2018 07:30;620;;
01.01.2018 07:45;630;;
01.01.2018 08:00;639;;
01.01.2018 08:15;639;;
01.01.2018 08:30;636;;
01.01.2018 08:45;654;;
01.01.2018 09:00;681;;
01.01.2018 09:15;716;;
01.01.2018 09:30;737;;
01.01.2018 09:45;767;;
01.01.2018 10:00;786;;
01.01.2018 10:15;795;;
01.01.2018 10:30;829;;
01.01.2018 10:45;846;;
01.01.2018 11:00;880;;
01.01.2018 11:15;930;;
01.01.2018 11:30;975;;
01.01.2018 11:45;1.019;;
01.01.2018 12:00;1.020;;
01.01.2018 12:15;992;;
01.01.2018 12:30;1.000;;
01.01.2018 12:45;958;;
01.01.2018 13:00;926;;
01.01.2018 13:15;900;;
01.01.2018 13:30;882;;
01.01.2018 13:45;878;;
01.01.2018 14:00;857;;
01.01.2018 14:15;836;;
01.01.2018 14:30;820;;
01.01.2018 14:45;815;;
01.01.2018 15:00;816;;
01.01.2018 15:15;835;;
01.01.2018 15:30;843;;
01.01.2018 15:45;842;;
01.01.2018 16:00;850;;
01.01.2018 16:15;861;;
01.01.2018 16:30;890;;
01.01.2018 16:45;954;;
01.01.2018 17:00;1.004;;
01.01.2018 17:15;1.042;;
01.01.2018 17:30;1.068;;
01.01.2018 17:45;1.086;;
01.01.2018 18:00;1.093;;
01.01.2018 18:15;1.102;;
01.01.2018 18:30;1.119;;
01.01.2018 18:45;1.114;;
01.01.2018 19:00;1.104;;
01.01.2018 19:15;1.079;;
01.01.2018 19:30;1.072;;
01.01.2018 19:45;1.044;;
01.01.2018 20:00;1.026;;
01.01.2018 20:15;1.005;;
01.01.2018 20:30;979;;
01.01.2018 20:45;957;;
01.01.2018 21:00;937;;
01.01.2018 21:15;911;;
01.01.2018 21:30;887;;
01.01.2018 21:45;866;;
01.01.2018 22:00;858;;
01.01.2018 22:15;837;;
01.01.2018 22:30;815;;
01.01.2018 22:45;789;;
01.01.2018 23:00;771;;
01.01.2018 23:15;741;;
01.01.2018 23:30;720;;
01.01.2018 23:45;695;;
02.01.2018 00:00;675;;
02.01.2018 00:15;662;;
02.01.2018 00:30;645;;
02.01.2018 00:45;633;;
02.01.2018 01:00;623;;
02.01.2018 01:15;597;;
02.01.2018 01:30;588;;
02.01.2018 01:45;579;;
02.01.2018 02:00;573;;
02.01.2018 02:15;573;;
02.01.2018 02:30;570;;
02.01.2018 02:45;568;;
02.01.2018 03:00;570;;
02.01.2018 03:15;574;;
02.01.2018 03:30;584;;
02.01.2018 03:45;590;;
02.01.2018 04:00;597;;
02.01.2018 04:15;615;;
02.01.2018 04:30;621;;
02.01.2018 04:45;629;;
02.01.2018 05:00;632;;
02.01.2018 05:15;661;;
02.01.2018 05:30;693;;
02.01.2018 05:45;737;;
02.01.2018 06:00;766;;
02.01.2018 06:15;844;;
02.01.2018 06:30;862;;
02.01.2018 06:45;895;;
02.01.2018 07:00;950;;
02.01.2018 07:15;1.000;;
02.01.2018 07:30;1.029;;
02.01.2018 07:45;1.066;;
02.01.2018 08:00;1.101;;
02.01.2018 08:15;1.128;;
02.01.2018 08:30;1.137;;
02.01.2018 08:45;1.159;;
02.01.2018 09:00;1.178;;
02.01.2018 09:15;1.192;;
02.01.2018 09:30;1.192;;
02.01.2018 09:45;1.215;;
02.01.2018 10:00;1.226;;
02.01.2018 10:15;1.224;;
02.01.2018 10:30;1.214;;
02.01.2018 10:45;1.220;;
02.01.2018 11:00;1.229;;
02.01.2018 11:15;1.249;;
02.01.2018 11:30;1.312;;
02.01.2018 11:45;1.319;;
02.01.2018 12:00;1.329;;
02.01.2018 12:15;1.318;;
02.01.2018 12:30;1.287;;
02.01.2018 12:45;1.261;;
02.01.2018 13:00;1.237;;
02.01.2018 13:15;1.237;;
02.01.2018 13:30;1.231;;
02.01.2018 13:45;1.222;;
02.01.2018 14:00;1.216;;
02.01.2018 14:15;1.206;;
02.01.2018 14:30;1.202;;
02.01.2018 14:45;1.193;;
02.01.2018 15:00;1.191;;
02.01.2018 15:15;1.179;;
02.01.2018 15:30;1.170;;
02.01.2018 15:45;1.164;;
02.01.2018 16:00;1.171;;
02.01.2018 16:15;1.183;;
02.01.2018 16:30;1.197;;
02.01.2018 16:45;1.240;;
02.01.2018 17:00;1.286;;
02.01.2018 17:15;1.324;;
02.01.2018 17:30;1.334;;
02.01.2018 17:45;1.342;;
02.01.2018 18:00;1.365;;
02.01.2018 18:15;1.348;;
02.01.2018 18:30;1.332;;
02.01.2018 18:45;1.320;;
02.01.2018 19:00;1.317;;
02.01.2018 19:15;1.292;;
02.01.2018 19:30;1.253;;
02.01.2018 19:45;1.222;;
02.01.2018 20:00;1.199;;
02.01.2018 20:15;1.155;;
02.01.2018 20:30;1.124;;
02.01.2018 20:45;1.098;;
02.01.2018 21:00;1.069;;
02.01.2018 21:15;1.039;;
02.01.2018 21:30;1.011;;
02.01.2018 21:45;977;;
02.01.2018 22:00;963;;
02.01.2018 22:15;936;;
02.01.2018 22:30;905;;
02.01.2018 22:45;873;;
02.01.2018 23:00;844;;
02.01.2018 23:15;812;;
02.01.2018 23:30;783;;
02.01.2018 23:45;753;;
03.01.2018 00:00;739;;
03.01.2018 00:15;716;;
03.01.2018 00:30;697;;
03.01.2018 00:45;685;;
03.01.2018 01:00;668;;
03.01.2018 01:15;648;;
03.01.2018 01:30;630;;
03.01.2018 01:45;624;;
03.01.2018 02:00;627;;
03.01.2018 02:15;626;;
03.01.2018 02:30;621;;
03.01.2018 02:45;621;;
03.01.2018 03:00;618;;
03.01.2018 03:15;616;;
03.01.2018 03:30;628;;
03.01.2018 03:45;640;;
03.01.2018 04:00;649;;
03.01.2018 04:15;668;;
03.01.2018 04:30;676;;
03.01.2018 04:45;687;;
03.01.2018 05:00;693;;
03.01.2018 05:15;729;;
03.01.2018 05:30;750;;
03.01.2018 05:45;790;;
03.01.2018 06:00;837;;
03.01.2018 06:15;886;;
03.01.2018 06:30;919;;
03.01.2018 06:45;953;;
03.01.2018 07:00;1.006;;
03.01.2018 07:15;1.053;;
03.01.2018 07:30;1.099;;
03.01.2018 07:45;1.134;;
03.01.2018 08:00;1.171;;
03.01.2018 08:15;1.188;;
03.01.2018 08:30;1.211;;
03.01.2018 08:45;1.230;;
03.01.2018 09:00;1.240;;
03.01.2018 09:15;1.279;;
03.01.2018 09:30;1.278;;
03.01.2018 09:45;1.272;;
03.01.2018 10:00;1.258;;
03.01.2018 10:15;1.266;;
03.01.2018 10:30;1.280;;
03.01.2018 10:45;1.264;;
03.01.2018 11:00;1.268;;
03.01.2018 11:15;1.298;;
03.01.2018 11:30;1.359;;
03.01.2018 11:45;1.392;;
03.01.2018 12:00;1.386;;
03.01.2018 12:15;1.384;;
03.01.2018 12:30;1.370;;
03.01.2018 12:45;1.335;;
03.01.2018 13:00;1.304;;
03.01.2018 13:15;1.259;;
03.01.2018 13:30;1.247;;
03.01.2018 13:45;1.226;;
03.01.2018 14:00;1.222;;
03.01.2018 14:15;1.211;;
03.01.2018 14:30;1.215;;
03.01.2018 14:45;1.209;;
03.01.2018 15:00;1.213;;
03.01.2018 15:15;1.214;;
03.01.2018 15:30;1.204;;
03.01.2018 15:45;1.193;;
03.01.2018 16:00;1.203;;
03.01.2018 16:15;1.224;;
03.01.2018 16:30;1.238;;
03.01.2018 16:45;1.286;;
03.01.2018 17:00;1.325;;
03.01.2018 17:15;1.346;;
03.01.2018 17:30;1.354;;
03.01.2018 17:45;1.369;;
03.01.2018 18:00;1.381;;
03.01.2018 18:15;1.371;;
03.01.2018 18:30;1.357;;
03.01.2018 18:45;1.338;;
03.01.2018 19:00;1.329;;
03.01.2018 19:15;1.301;;
03.01.2018 19:30;1.258;;
03.01.2018 19:45;1.219;;
03.01.2018 20:00;1.210;;
03.01.2018 20:15;1.168;;
03.01.2018 20:30;1.132;;
03.01.2018 20:45;1.101;;
03.01.2018 21:00;1.074;;
03.01.2018 21:15;1.040;;
03.01.2018 21:30;1.012;;
03.01.2018 21:45;990;;
03.01.2018 22:00;968;;
03.01.2018 22:15;929;;
03.01.2018 22:30;891;;
03.01.2018 22:45;861;;
03.01.2018 23:00;833;;
03.01.2018 23:15;822;;
03.01.2018 23:30;791;;
03.01.2018 23:45;760;;
04.01.2018 00:00;743;;
04.01.2018 00:15;723;;
04.01.2018 00:30;698;;
04.01.2018 00:45;688;;
04.01.2018 01:00;676;;
04.01.2018 01:15;651;;
04.01.2018 01:30;642;;
04.01.2018 01:45;631;;
04.01.2018 02:00;627;;
04.01.2018 02:15;626;;
04.01.2018 02:30;620;;
04.01.2018 02:45;616;;
04.01.2018 03:00;613;;
04.01.2018 03:15;620;;
04.01.2018 03:30;626;;
04.01.2018 03:45;635;;
04.01.2018 04:00;636;;
04.01.2018 04:15;658;;
04.01.2018 04:30;666;;
04.01.2018 04:45;680;;
04.01.2018 05:00;691;;
04.01.2018 05:15;722;;
04.01.2018 05:30;743;;
04.01.2018 05:45;797;;
04.01.2018 06:00;841;;
04.01.2018 06:15;889;;
04.01.2018 06:30;913;;
04.01.2018 06:45;947;;
04.01.2018 07:00;1.003;;
04.01.2018 07:15;1.066;;
04.01.2018 07:30;1.105;;
04.01.2018 07:45;1.139;;
04.01.2018 08:00;1.181;;
04.01.2018 08:15;1.189;;
04.01.2018 08:30;1.194;;
04.01.2018 08:45;1.203;;
04.01.2018 09:00;1.210;;
04.01.2018 09:15;1.240;;
04.01.2018 09:30;1.235;;
04.01.2018 09:45;1.243;;
04.01.2018 10:00;1.248;;
04.01.2018 10:15;1.254;;
04.01.2018 10:30;1.264;;
04.01.2018 10:45;1.260;;
04.01.2018 11:00;1.286;;
04.01.2018 11:15;1.300;;
04.01.2018 11:30;1.327;;
04.01.2018 11:45;1.358;;
04.01.2018 12:00;1.352;;
04.01.2018 12:15;1.333;;
04.01.2018 12:30;1.320;;
04.01.2018 12:45;1.308;;
04.01.2018 13:00;1.297;;
04.01.2018 13:15;1.277;;
04.01.2018 13:30;1.264;;
04.01.2018 13:45;1.243;;
04.01.2018 14:00;1.235;;
04.01.2018 14:15;1.242;;
04.01.2018 14:30;1.244;;
04.01.2018 14:45;1.246;;
04.01.2018 15:00;1.240;;
04.01.2018 15:15;1.238;;
04.01.2018 15:30;1.232;;
04.01.2018 15:45;1.220;;
04.01.2018 16:00;1.232;;
04.01.2018 16:15;1.249;;
04.01.2018 16:30;1.254;;
04.01.2018 16:45;1.297;;
04.01.2018 17:00;1.321;;
04.01.2018 17:15;1.351;;
04.01.2018 17:30;1.365;;
04.01.2018 17:45;1.373;;
04.01.2018 18:00;1.395;;
04.01.2018 18:15;1.366;;
04.01.2018 18:30;1.353;;
04.01.2018 18:45;1.327;;
04.01.2018 19:00;1.312;;
04.01.2018 19:15;1.281;;
04.01.2018 19:30;1.242;;
04.01.2018 19:45;1.205;;
04.01.2018 20:00;1.179;;
04.01.2018 20:15;1.152;;
04.01.2018 20:30;1.118;;
04.01.2018 20:45;1.087;;
04.01.2018 21:00;1.055;;
04.01.2018 21:15;1.026;;
04.01.2018 21:30;993;;
04.01.2018 21:45;974;;
04.01.2018 22:00;956;;
04.01.2018 22:15;923;;
04.01.2018 22:30;884;;
04.01.2018 22:45;845;;
04.01.2018 23:00;812;;
04.01.2018 23:15;793;;
04.01.2018 23:30;761;;
04.01.2018 23:45;732;;
05.01.2018 00:00;717;;
05.01.2018 00:15;702;;
05.01.2018 00:30;686;;
05.01.2018 00:45;662;;
05.01.2018 01:00;648;;
05.01.2018 01:15;638;;
05.01.2018 01:30;626;;
05.01.2018 01:45;616;;
05.01.2018 02:00;610;;
05.01.2018 02:15;607;;
05.01.2018 02:30;600;;
05.01.2018 02:45;599;;
05.01.2018 03:00;601;;
05.01.2018 03:15;607;;
05.01.2018 03:30;614;;
05.01.2018 03:45;616;;
05.01.2018 04:00;624;;
05.01.2018 04:15;643;;
05.01.2018 04:30;657;;
05.01.2018 04:45;680;;
05.01.2018 05:00;686;;
05.01.2018 05:15;717;;
05.01.2018 05:30;745;;
05.01.2018 05:45;800;;
05.01.2018 06:00;836;;
05.01.2018 06:15;879;;
05.01.2018 06:30;909;;
05.01.2018 06:45;941;;
05.01.2018 07:00;999;;
05.01.2018 07:15;1.063;;
05.01.2018 07:30;1.108;;
05.01.2018 07:45;1.147;;
05.01.2018 08:00;1.192;;
05.01.2018 08:15;1.194;;
05.01.2018 08:30;1.206;;
05.01.2018 08:45;1.224;;
05.01.2018 09:00;1.243;;
05.01.2018 09:15;1.261;;
05.01.2018 09:30;1.249;;
05.01.2018 09:45;1.254;;
05.01.2018 10:00;1.262;;
05.01.2018 10:15;1.273;;
05.01.2018 10:30;1.278;;
05.01.2018 10:45;1.271;;
05.01.2018 11:00;1.272;;
05.01.2018 11:15;1.294;;
05.01.2018 11:30;1.324;;
05.01.2018 11:45;1.335;;
05.01.2018 12:00;1.333;;
05.01.2018 12:15;1.326;;
05.01.2018 12:30;1.300;;
05.01.2018 12:45;1.290;;
05.01.2018 13:00;1.246;;
05.01.2018 13:15;1.240;;
05.01.2018 13:30;1.224;;
05.01.2018 13:45;1.217;;
05.01.2018 14:00;1.205;;
05.01.2018 14:15;1.198;;
05.01.2018 14:30;1.193;;
05.01.2018 14:45;1.185;;
05.01.2018 15:00;1.182;;
05.01.2018 15:15;1.177;;
05.01.2018 15:30;1.173;;
05.01.2018 15:45;1.184;;
05.01.2018 16:00;1.182;;
05.01.2018 16:15;1.200;;
05.01.2018 16:30;1.218;;
05.01.2018 16:45;1.258;;
05.01.2018 17:00;1.285;;
05.01.2018 17:15;1.305;;
05.01.2018 17:30;1.309;;
05.01.2018 17:45;1.317;;
05.01.2018 18:00;1.331;;
05.01.2018 18:15;1.320;;
05.01.2018 18:30;1.336;;
05.01.2018 18:45;1.309;;
05.01.2018 19:00;1.301;;
05.01.2018 19:15;1.268;;
05.01.2018 19:30;1.232;;
05.01.2018 19:45;1.199;;
05.01.2018 20:00;1.182;;
05.01.2018 20:15;1.150;;
05.01.2018 20:30;1.119;;
05.01.2018 20:45;1.088;;
05.01.2018 21:00;1.066;;
05.01.2018 21:15;1.031;;
05.01.2018 21:30;1.012;;
05.01.2018 21:45;982;;
05.01.2018 22:00;963;;
05.01.2018 22:15;932;;
05.01.2018 22:30;897;;
05.01.2018 22:45;876;;
05.01.2018 23:00;852;;
05.01.2018 23:15;824;;
05.01.2018 23:30;799;;
05.01.2018 23:45;773;;
06.01.2018 00:00;753;;
06.01.2018 00:15;734;;
06.01.2018 00:30;707;;
06.01.2018 00:45;684;;
06.01.2018 01:00;673;;
06.01.2018 01:15;650;;
06.01.2018 01:30;638;;
06.01.2018 01:45;625;;
06.01.2018 02:00;612;;
06.01.2018 02:15;609;;
06.01.2018 02:30;601;;
06.01.2018 02:45;592;;
06.01.2018 03:00;593;;
06.01.2018 03:15;596;;
06.01.2018 03:30;598;;
06.01.2018 03:45;599;;
06.01.2018 04:00;592;;
06.01.2018 04:15;600;;
06.01.2018 04:30;600;;
06.01.2018 04:45;602;;
06.01.2018 05:00;610;;
06.01.2018 05:15;619;;
06.01.2018 05:30;628;;
06.01.2018 05:45;641;;
06.01.2018 06:00;667;;
06.01.2018 06:15;691;;
06.01.2018 06:30;706;;
06.01.2018 06:45;723;;
06.01.2018 07:00;735;;
06.01.2018 07:15;762;;
06.01.2018 07:30;785;;
06.01.2018 07:45;819;;
06.01.2018 08:00;852;;
06.01.2018 08:15;885;;
06.01.2018 08:30;904;;
06.01.2018 08:45;931;;
06.01.2018 09:00;959;;
06.01.2018 09:15;998;;
06.01.2018 09:30;1.033;;
06.01.2018 09:45;1.061;;
06.01.2018 10:00;1.061;;
06.01.2018 10:15;1.083;;
06.01.2018 10:30;1.105;;
06.01.2018 10:45;1.134;;
06.01.2018 11:00;1.135;;
06.01.2018 11:15;1.151;;
06.01.2018 11:30;1.201;;
06.01.2018 11:45;1.224;;
06.01.2018 12:00;1.230;;
06.01.2018 12:15;1.212;;
06.01.2018 12:30;1.179;;
06.01.2018 12:45;1.146;;
06.01.2018 13:00;1.134;;
06.01.2018 13:15;1.115;;
06.01.2018 13:30;1.101;;
06.01.2018 13:45;1.084;;
06.01.2018 14:00;1.055;;
06.01.2018 14:15;1.044;;
06.01.2018 14:30;1.024;;
06.01.2018 14:45;1.020;;
06.01.2018 15:00;1.016;;
06.01.2018 15:15;1.010;;
06.01.2018 15:30;1.021;;
06.01.2018 15:45;1.027;;
06.01.2018 16:00;1.027;;
06.01.2018 16:15;1.022;;
06.01.2018 16:30;1.033;;
06.01.2018 16:45;1.086;;
06.01.2018 17:00;1.129;;
06.01.2018 17:15;1.173;;
06.01.2018 17:30;1.193;;
06.01.2018 17:45;1.209;;
06.01.2018 18:00;1.217;;
06.01.2018 18:15;1.217;;
06.01.2018 18:30;1.207;;
06.01.2018 18:45;1.200;;
06.01.2018 19:00;1.190;;
06.01.2018 19:15;1.169;;
06.01.2018 19:30;1.142;;
06.01.2018 19:45;1.125;;
06.01.2018 20:00;1.110;;
06.01.2018 20:15;1.077;;
06.01.2018 20:30;1.044;;
06.01.2018 20:45;1.016;;
06.01.2018 21:00;989;;
06.01.2018 21:15;962;;
06.01.2018 21:30;929;;
06.01.2018 21:45;911;;
06.01.2018 22:00;897;;
06.01.2018 22:15;881;;
06.01.2018 22:30;866;;
06.01.2018 22:45;845;;
06.01.2018 23:00;824;;
06.01.2018 23:15;798;;
06.01.2018 23:30;775;;
06.01.2018 23:45;752;;
07.01.2018 00:00;726;;
07.01.2018 00:15;707;;
07.01.2018 00:30;690;;
07.01.2018 00:45;670;;
07.01.2018 01:00;661;;
07.01.2018 01:15;627;;
07.01.2018 01:30;616;;
07.01.2018 01:45;605;;
07.01.2018 02:00;600;;
07.01.2018 02:15;590;;
07.01.2018 02:30;580;;
07.01.2018 02:45;572;;
07.01.2018 03:00;574;;
07.01.2018 03:15;576;;
07.01.2018 03:30;578;;
07.01.2018 03:45;581;;
07.01.2018 04:00;583;;
07.01.2018 04:15;587;;
07.01.2018 04:30;579;;
07.01.2018 04:45;579;;
07.01.2018 05:00;572;;
07.01.2018 05:15;589;;
07.01.2018 05:30;600;;
07.01.2018 05:45;599;;
07.01.2018 06:00;603;;
07.01.2018 06:15;615;;
07.01.2018 06:30;624;;
07.01.2018 06:45;635;;
07.01.2018 07:00;642;;
07.01.2018 07:15;664;;
07.01.2018 07:30;684;;
07.01.2018 07:45;709;;
07.01.2018 08:00;735;;
07.01.2018 08:15;759;;
07.01.2018 08:30;788;;
07.01.2018 08:45;825;;
07.01.2018 09:00;853;;
07.01.2018 09:15;886;;
07.01.2018 09:30;918;;
07.01.2018 09:45;955;;
07.01.2018 10:00;980;;
07.01.2018 10:15;1.014;;
07.01.2018 10:30;1.050;;
07.01.2018 10:45;1.093;;
07.01.2018 11:00;1.132;;
07.01.2018 11:15;1.195;;
07.01.2018 11:30;1.243;;
07.01.2018 11:45;1.281;;
07.01.2018 12:00;1.292;;
07.01.2018 12:15;1.262;;
07.01.2018 12:30;1.221;;
07.01.2018 12:45;1.163;;
07.01.2018 13:00;1.132;;
07.01.2018 13:15;1.085;;
07.01.2018 13:30;1.071;;
07.01.2018 13:45;1.037;;
07.01.2018 14:00;1.022;;
07.01.2018 14:15;1.003;;
07.01.2018 14:30;992;;
07.01.2018 14:45;977;;
07.01.2018 15:00;983;;
07.01.2018 15:15;979;;
07.01.2018 15:30;974;;
07.01.2018 15:45;972;;
07.01.2018 16:00;976;;
07.01.2018 16:15;990;;
07.01.2018 16:30;1.000;;
07.01.2018 16:45;1.040;;
07.01.2018 17:00;1.084;;
07.01.2018 17:15;1.124;;
07.01.2018 17:30;1.143;;
07.01.2018 17:45;1.161;;
07.01.2018 18:00;1.181;;
07.01.2018 18:15;1.193;;
07.01.2018 18:30;1.199;;
07.01.2018 18:45;1.184;;
07.01.2018 19:00;1.170;;
07.01.2018 19:15;1.147;;
07.01.2018 19:30;1.124;;
07.01.2018 19:45;1.110;;
07.01.2018 20:00;1.088;;
07.01.2018 20:15;1.065;;
07.01.2018 20:30;1.030;;
07.01.2018 20:45;1.005;;
07.01.2018 21:00;976;;
07.01.2018 21:15;944;;
07.01.2018 21:30;926;;
07.01.2018 21:45;911;;
07.01.2018 22:00;910;;
07.01.2018 22:15;890;;
07.01.2018 22:30;867;;
07.01.2018 22:45;838;;
07.01.2018 23:00;817;;
07.01.2018 23:15;790;;
07.01.2018 23:30;770;;
07.01.2018 23:45;747;;
08.01.2018 00:00;727;;
08.01.2018 00:15;715;;
08.01.2018 00:30;702;;
08.01.2018 00:45;693;;
08.01.2018 01:00;684;;
08.01.2018 01:15;662;;
08.01.2018 01:30;650;;
08.01.2018 01:45;649;;
08.01.2018 02:00;647;;
08.01.2018 02:15;642;;
08.01.2018 02:30;638;;
08.01.2018 02:45;637;;
08.01.2018 03:00;641;;
08.01.2018 03:15;650;;
08.01.2018 03:30;657;;
08.01.2018 03:45;662;;
08.01.2018 04:00;671;;
08.01.2018 04:15;695;;
08.01.2018 04:30;711;;
08.01.2018 04:45;721;;
08.01.2018 05:00;730;;
08.01.2018 05:15;769;;
08.01.2018 05:30;797;;
08.01.2018 05:45;854;;
08.01.2018 06:00;901;;
08.01.2018 06:15;974;;
08.01.2018 06:30;1.022;;
08.01.2018 06:45;1.067;;
08.01.2018 07:00;1.106;;
08.01.2018 07:15;1.173;;
08.01.2018 07:30;1.211;;
08.01.2018 07:45;1.242;;
08.01.2018 08:00;1.273;;
08.01.2018 08:15;1.293;;
08.01.2018 08:30;1.302;;
08.01.2018 08:45;1.318;;
08.01.2018 09:00;1.325;;
08.01.2018 09:15;1.359;;
08.01.2018 09:30;1.350;;
08.01.2018 09:45;1.352;;
08.01.2018 10:00;1.359;;
08.01.2018 10:15;1.363;;
08.01.2018 10:30;1.376;;
08.01.2018 10:45;1.362;;
08.01.2018 11:00;1.377;;
08.01.2018 11:15;1.397;;
08.01.2018 11:30;1.416;;
08.01.2018 11:45;1.436;;
08.01.2018 12:00;1.448;;
08.01.2018 12:15;1.453;;
08.01.2018 12:30;1.427;;
08.01.2018 12:45;1.409;;
08.01.2018 13:00;1.400;;
08.01.2018 13:15;1.402;;
08.01.2018 13:30;1.384;;
08.01.2018 13:45;1.360;;
08.01.2018 14:00;1.335;;
08.01.2018 14:15;1.320;;
08.01.2018 14:30;1.317;;
08.01.2018 14:45;1.319;;
08.01.2018 15:00;1.326;;
08.01.2018 15:15;1.338;;
08.01.2018 15:30;1.314;;
08.01.2018 15:45;1.295;;
08.01.2018 16:00;1.293;;
08.01.2018 16:15;1.300;;
08.01.2018 16:30;1.309;;
08.01.2018 16:45;1.344;;
08.01.2018 17:00;1.384;;
08.01.2018 17:15;1.400;;
08.01.2018 17:30;1.413;;
08.01.2018 17:45;1.402;;
08.01.2018 18:00;1.420;;
08.01.2018 18:15;1.410;;
08.01.2018 18:30;1.392;;
08.01.2018 18:45;1.379;;
08.01.2018 19:00;1.369;;
08.01.2018 19:15;1.338;;
08.01.2018 19:30;1.282;;
08.01.2018 19:45;1.261;;
08.01.2018 20:00;1.231;;
08.01.2018 20:15;1.193;;
08.01.2018 20:30;1.164;;
08.01.2018 20:45;1.134;;
08.01.2018 21:00;1.097;;
08.01.2018 21:15;1.073;;
08.01.2018 21:30;1.048;;
08.01.2018 21:45;1.017;;
08.01.2018 22:00;984;;
08.01.2018 22:15;961;;
08.01.2018 22:30;930;;
08.01.2018 22:45;883;;
08.01.2018 23:00;862;;
08.01.2018 23:15;838;;
08.01.2018 23:30;808;;
08.01.2018 23:45;780;;
09.01.2018 00:00;763;;
09.01.2018 00:15;745;;
09.01.2018 00:30;729;;
09.01.2018 00:45;716;;
09.01.2018 01:00;704;;
09.01.2018 01:15;694;;
09.01.2018 01:30;689;;
09.01.2018 01:45;674;;
09.01.2018 02:00;673;;
09.01.2018 02:15;666;;
09.01.2018 02:30;666;;
09.01.2018 02:45;665;;
09.01.2018 03:00;665;;
09.01.2018 03:15;671;;
09.01.2018 03:30;671;;
09.01.2018 03:45;682;;
09.01.2018 04:00;691;;
09.01.2018 04:15;712;;
09.01.2018 04:30;722;;
09.01.2018 04:45;739;;
09.01.2018 05:00;763;;
09.01.2018 05:15;804;;
09.01.2018 05:30;828;;
09.01.2018 05:45;865;;
09.01.2018 06:00;914;;
09.01.2018 06:15;982;;
09.01.2018 06:30;1.041;;
09.01.2018 06:45;1.087;;
09.01.2018 07:00;1.127;;
09.01.2018 07:15;1.187;;
09.01.2018 07:30;1.224;;
09.01.2018 07:45;1.266;;
09.01.2018 08:00;1.302;;
09.01.2018 08:15;1.323;;
09.01.2018 08:30;1.334;;
09.01.2018 08:45;1.342;;
09.01.2018 09:00;1.344;;
09.01.2018 09:15;1.361;;
09.01.2018 09:30;1.359;;
09.01.2018 09:45;1.360;;
09.01.2018 10:00;1.347;;
09.01.2018 10:15;1.362;;
09.01.2018 10:30;1.356;;
09.01.2018 10:45;1.360;;
09.01.2018 11:00;1.379;;
09.01.2018 11:15;1.382;;
09.01.2018 11:30;1.411;;
09.01.2018 11:45;1.422;;
09.01.2018 12:00;1.423;;
09.01.2018 12:15;1.414;;
09.01.2018 12:30;1.371;;
09.01.2018 12:45;1.348;;
09.01.2018 13:00;1.338;;
09.01.2018 13:15;1.347;;
09.01.2018 13:30;1.323;;
09.01.2018 13:45;1.317;;
09.01.2018 14:00;1.323;;
09.01.2018 14:15;1.327;;
09.01.2018 14:30;1.319;;
09.01.2018 14:45;1.323;;
09.01.2018 15:00;1.325;;
09.01.2018 15:15;1.325;;
09.01.2018 15:30;1.310;;
09.01.2018 15:45;1.285;;
09.01.2018 16:00;1.271;;
09.01.2018 16:15;1.250;;
09.01.2018 16:30;1.261;;
09.01.2018 16:45;1.289;;
09.01.2018 17:00;1.347;;
09.01.2018 17:15;1.386;;
09.01.2018 17:30;1.404;;
09.01.2018 17:45;1.413;;
09.01.2018 18:00;1.427;;
09.01.2018 18:15;1.414;;
09.01.2018 18:30;1.398;;
09.01.2018 18:45;1.386;;
09.01.2018 19:00;1.369;;
09.01.2018 19:15;1.338;;
09.01.2018 19:30;1.294;;
09.01.2018 19:45;1.265;;
09.01.2018 20:00;1.246;;
09.01.2018 20:15;1.206;;
09.01.2018 20:30;1.167;;
09.01.2018 20:45;1.143;;
09.01.2018 21:00;1.118;;
09.01.2018 21:15;1.079;;
09.01.2018 21:30;1.050;;
09.01.2018 21:45;1.014;;
09.01.2018 22:00;991;;
09.01.2018 22:15;956;;
09.01.2018 22:30;915;;
09.01.2018 22:45;890;;
09.01.2018 23:00;862;;
09.01.2018 23:15;833;;
09.01.2018 23:30;804;;
09.01.2018 23:45;781;;
10.01.2018 00:00;763;;
10.01.2018 00:15;750;;
10.01.2018 00:30;728;;
10.01.2018 00:45;717;;
10.01.2018 01:00;706;;
10.01.2018 01:15;687;;
10.01.2018 01:30;680;;
10.01.2018 01:45;668;;
10.01.2018 02:00;658;;
10.01.2018 02:15;656;;
10.01.2018 02:30;654;;
10.01.2018 02:45;657;;
10.01.2018 03:00;647;;
10.01.2018 03:15;650;;
10.01.2018 03:30;659;;
10.01.2018 03:45;670;;
10.01.2018 04:00;673;;
10.01.2018 04:15;706;;
10.01.2018 04:30;717;;
10.01.2018 04:45;729;;
10.01.2018 05:00;738;;
10.01.2018 05:15;780;;
10.01.2018 05:30;802;;
10.01.2018 05:45;848;;
10.01.2018 06:00;911;;
10.01.2018 06:15;968;;
10.01.2018 06:30;1.021;;
10.01.2018 06:45;1.065;;
10.01.2018 07:00;1.116;;
10.01.2018 07:15;1.181;;
10.01.2018 07:30;1.208;;
10.01.2018 07:45;1.246;;
10.01.2018 08:00;1.292;;
10.01.2018 08:15;1.298;;
10.01.2018 08:30;1.301;;
10.01.2018 08:45;1.304;;
10.01.2018 09:00;1.305;;
10.01.2018 09:15;1.327;;
10.01.2018 09:30;1.315;;
10.01.2018 09:45;1.313;;
10.01.2018 10:00;1.317;;
10.01.2018 10:15;1.334;;
10.01.2018 10:30;1.330;;
10.01.2018 10:45;1.319;;
10.01.2018 11:00;1.329;;
10.01.2018 11:15;1.335;;
10.01.2018 11:30;1.353;;
10.01.2018 11:45;1.368;;
10.01.2018 12:00;1.367;;
10.01.2018 12:15;1.354;;
10.01.2018 12:30;1.339;;
10.01.2018 12:45;1.301;;
10.01.2018 13:00;1.294;;
10.01.2018 13:15;1.256;;
10.01.2018 13:30;1.248;;
10.01.2018 13:45;1.254;;
10.01.2018 14:00;1.240;;
10.01.2018 14:15;1.226;;
10.01.2018 14:30;1.208;;
10.01.2018 14:45;1.203;;
10.01.2018 15:00;1.202;;
10.01.2018 15:15;1.206;;
10.01.2018 15:30;1.202;;
10.01.2018 15:45;1.195;;
10.01.2018 16:00;1.189;;
10.01.2018 16:15;1.186;;
10.01.2018 16:30;1.202;;
10.01.2018 16:45;1.236;;
10.01.2018 17:00;1.292;;
10.01.2018 17:15;1.348;;
10.01.2018 17:30;1.377;;
10.01.2018 17:45;1.394;;
10.01.2018 18:00;1.407;;
10.01.2018 18:15;1.392;;
10.01.2018 18:30;1.386;;
10.01.2018 18:45;1.360;;
10.01.2018 19:00;1.351;;
10.01.2018 19:15;1.326;;
10.01.2018 19:30;1.281;;
10.01.2018 19:45;1.255;;
10.01.2018 20:00;1.240;;
10.01.2018 20:15;1.200;;